Regional Weather Roundup
Issued by NWS New Orleans/Baton Rouge, LA

Home | Current Version | Previous Version | Text Only | Print | Product List | Glossary Off
Versions: 1 2 3 4 5 6 7 8 9 10 11 12 13 14 15 16 17 18 19 20 21 22 23 24 25 26 27 28 29 30 31 32 33 34 35 36 37 38 39 40 41 42 43 44 45 46 47 48 49 50

776
ASUS44 KLIX 232201
RWRLIX
NEW ORLEANS REGIONAL WEATHER ROUNDUP
NATIONAL WEATHER SERVICE NEW ORLEANS LA
500 PM CDT WED APR 23 2014

NOTE: "FAIR" INDICATES FEW OR NO CLOUDS BELOW 12,000 FEET WITH NO
      SIGNIFICANT WEATHER AND/OR OBSTRUCTIONS TO VISIBILITY.
      SKY/WX - SKY CONDITION AND SIGNIFICANT WEATHER.
      TMP - AIR TEMPERATURE.     DP    - DEWPOINT TEMPERATURE.
      RH  - RELATIVE HUMIDITY.   PRES  - PRESSURE.
      HI  - HEAT INDEX.          WCI   - WIND CHILL INDEX.

*  THESE STATIONS ARE NOT NWS OR FAA STATIONS AND ARE NOT UNDER
   NWS QUALITY CONTROL.

LAZ038-040-048-061>063-065>067-069-232300-
SOUTHEAST LOUISIANA

CITY           SKY/WX    TMP DP  RH WIND       PRES   REMARKS
N.O. AUDUBON     N/A     88  59  38 MISG        N/A
N.O. INTL ARPT MOSUNNY   82  55  39 MISG      29.89F
N.O. LAKEFRONT SUNNY     80  60  50 NW6       29.91F
N.O. DOWNTOWN* CLOUDY    82  54  36 NE7       29.90F
SLIDELL        SUNNY     82  55  39 S9        29.89F
BATON ROUGE    MOSUNNY   85  51  31 NE6       29.89F
BOOTHVILLE     SUNNY     78  59  51 VRB3      29.92F
BELLE CHASSE   PTSUNNY   81  60  48 SE6       29.89F
BOGALUSA*        N/A     85  53  32 E3        29.90F
GALLIANO*      NOT AVBL
NEW ROADS*     NOT AVBL
GONZALES*      NOT AVBL
HAMMOND*       NOT AVBL
HOUMA*         NOT AVBL
PORT FOURCHON* CLEAR     77  63  61 S8G14     29.93F

$$

MSZ070-080>082-232300-
SOUTHERN MISSISSIPPI

CITY           SKY/WX    TMP DP  RH WIND       PRES   REMARKS
MCCOMB         SUNNY     82  45  27 VRB5      29.90F
GULFPORT       SUNNY     79  61  53 SW9       29.89F
BILOXI         NOT AVBL
PASCAGOULA     SUNNY     78  62  57 SW8       29.89F

$$

COASTAL OBSERVATIONS
LAKE AND NEARSHORE STATIONS

STATION/POSITION TIME  TEMP    WIND        PRES    WAVE
                       AIR SEA DIR/SP/G            HT/PER
                 (UTC) (F)     (DEG/KT/KT) (MB)    (FT/S)
PASCAGOULA       2100   75     220/  8/ 10 1012.0
WAVELAND YACHT   2100   76 74  190/ 10/ 12 1011.9
GRAND ISLE       2100   76 71  170/  5/  8 1013.7
SOUTHWEST PASS   2100   71 61  190/  5/  7 1013.7
NEW CANAL        2100   78 71  340/  2/  4 1013.1
SHELL BEACH      2100   78 71  140/  4/  7 1012.7

OFFSHORE STATIONS

STATION/POSITION TIME  TEMP    WIND        PRES    WAVE
                       AIR SEA DIR/SP/G            HT/PER
                 (UTC) (F)     (DEG/KT/KT) (MB)    (FT/S)
64 S DAUPHIN ISL 2109   72 74   CALM  /  2 1013.3

$$




USA.gov is the U.S. government's official web portal to all federal, state and local government web resources and services.